Wind_Speed
40 41 41 41 41 40 40 40 41 41 41 41 42 41 42 41 41 42 42 42 42 43 43 44 44 44 43 43 43 43 42 42 42 42 41 40 39 39 39 39 38 38 38
39 40 40 40 40 40 40 40 40 41 41 41 42 42 41 41 41 42 41 41 41 41 42 43 43 43 44 43 43 43 43 43 42 42 41 41 40 40 40 39 39 38 39
37 38 38 38 38 39 40 40 39 40 41 41 42 42 41 41 41 41 41 40 41 41 41 42 43 43 43 43 43 43 43 42 42 42 42 41 40 40 40 40 40 40 40
35 36 36 36 37 37 38 39 39 39 40 40 41 41 40 40 40 40 40 40 41 41 40 40 41 42 42 42 42 42 41 42 42 42 42 41 41 41 40 39 40 40 41
35 34 34 35 36 36 37 37 37 38 38 39 39 39 39 40 40 40 40 40 40 41 40 40 40 41 42 42 42 41 41 41 40 41 41 41 41 40 40 40 39 39 40
35 35 34 33 34 35 35 36 36 37 37 37 36 37 38 38 39 39 39 39 39 39 39 39 39 40 40 40 40 41 40 40 40 41 40 40 40 39 40 39 39 39 39
33 33 33 33 33 34 34 34 35 35 35 35 35 35 35 36 36 37 37 37 37 37 37 38 39 38 38 38 39 40 40 40 40 40 39 40 39 40 39 39 39 39 38
31 31 32 32 33 33 33 33 34 34 34 34 34 34 34 35 35 35 35 34 34 34 35 35 36 37 37 37 38 39 39 39 39 39 39 40 40 40 39 39 38 37 37
29 30 30 30 31 31 31 31 32 32 33 33 33 33 33 33 33 33 33 32 32 32 32 34 34 34 35 35 36 37 38 37 37 38 39 39 40 40 40 38 38 38 37
28 29 28 29 30 30 30 30 30 30 31 32 32 32 32 32 32 32 31 31 32 32 32 33 34 33 33 34 35 37 37 37 36 37 38 38 39 38 38 38 37 38 37
28 28 28 28 29 29 29 29 29 28 29 30 30 31 31 30 30 30 30 31 32 32 33 33 33 33 33 34 34 36 36 36 37 37 37 37 36 36 36 37 37 36 36
26 26 27 28 28 29 29 29 29 29 29 29 29 29 29 30 29 29 30 31 31 31 31 32 32 31 32 33 33 35 36 36 36 36 35 35 35 35 36 36 36 36 36
25 24 26 26 26 27 27 28 28 29 29 28 28 28 29 29 29 29 29 30 30 30 31 31 31 30 31 31 32 33 34 36 36 35 34 33 34 34 35 35 35 36 36
25 24 24 24 24 25 25 26 26 27 27 27 27 28 28 28 28 28 29 29 29 30 30 30 29 30 30 30 31 32 32 33 33 33 33 33 33 34 34 34 35 35 36
25 24 23 23 24 24 24 25 24 25 25 25 26 27 27 28 29 29 29 29 30 30 30 30 30 30 30 30 31 32 31 31 31 31 32 33 33 34 34 33 34 34 35
23 23 23 23 23 24 24 24 24 25 25 25 26 27 27 28 29 29 29 29 30 30 30 29 29 29 29 29 30 30 29 29 29 30 30 31 32 34 33 33 33 33 33
22 23 23 23 24 24 24 24 25 25 26 26 26 27 27 28 28 29 29 29 29 29 29 28 28 28 29 29 28 29 28 28 28 29 29 31 32 32 32 32 32 32 32
22 23 23 23 24 24 25 25 26 26 26 26 27 27 27 27 27 28 28 28 28 28 28 27 27 27 28 28 28 27 27 27 27 28 29 29 30 30 31 32 32 32 31
24 24 24 24 24 25 26 26 26 26 26 27 27 27 27 27 28 28 28 28 27 27 26 26 26 26 27 27 27 27 27 26 26 27 28 28 29 30 30 30 31 30 30
23 24 24 24 25 25 26 27 26 26 26 27 27 27 27 27 27 27 27 26 26 26 25 25 25 26 25 26 27 27 27 26 26 26 27 28 28 29 29 29 29 29 29
23 23 24 24 25 25 25 26 26 26 27 28 28 27 27 27 27 27 26 25 26 26 25 26 25 25 25 25 26 27 27 27 27 27 28 28 28 28 29 29 29 28 27
24 24 24 25 25 25 25 26 26 27 27 27 27 27 26 26 26 25 25 25 25 26 26 26 25 25 25 25 26 26 27 27 27 27 28 28 28 28 28 28 27 27 27
25 25 26 26 25 25 26 25 25 26 26 26 26 26 26 26 25 24 24 24 25 25 25 24 24 25 25 26 25 26 26 26 26 26 26 27 27 27 26 26 26 26 26
25 25 25 25 25 26 26 26 25 25 25 26 25 26 26 26 25 24 24 24 24 25 24 24 24 24 24 24 24 24 24 24 23 24 24 25 25 25 25 25 26 26 25
25 24 24 24 25 25 25 25 25 25 25 25 25 25 25 24 24 24 24 25 24 24 24 24 24 23 23 23 23 23 23 23 23 23 22 22 23 24 24 25 25 24 23
25 24 23 23 23 23 24 24 24 25 25 25 25 25 25 24 24 23 23 23 24 24 24 24 23 22 22 22 22 22 22 22 22 22 22 22 22 22 22 22 22 21 21
Wind_Direction
265 265 266 266 266 266 267 267 267 266 267 267 268 268 268 268 268 269 270 270 270 269 268 267 266 266 266 267 267 268 268 268 269 269 268 268 270 270 269 269 270 270 268
266 266 266 266 266 265 266 267 268 266 266 267 268 268 268 268 269 269 270 271 271 270 268 267 266 266 266 267 266 267 268 268 268 268 268 267 267 269 269 269 269 269 269
267 266 266 266 267 266 266 267 267 268 267 268 268 267 268 267 268 269 270 271 271 270 269 267 266 265 266 266 266 267 268 267 267 268 268 268 268 268 267 268 268 269 270
267 267 266 266 266 267 267 267 266 268 268 268 268 267 267 268 268 269 270 271 271 270 269 268 266 266 266 266 266 267 268 267 267 267 267 268 269 269 267 268 269 269 269
268 267 268 267 267 267 266 266 266 267 267 268 268 267 268 268 269 270 271 271 271 270 270 269 268 267 267 267 267 267 267 267 267 267 267 267 268 269 269 269 269 269 269
268 268 268 268 267 267 267 267 266 266 267 268 268 268 269 269 269 269 270 271 271 271 270 270 269 269 268 268 268 267 267 267 266 266 266 267 267 269 271 271 269 269 269
269 269 269 269 268 267 267 267 268 267 268 268 268 270 270 270 269 269 270 271 272 271 272 271 269 269 270 270 269 268 268 266 266 265 265 266 267 271 272 271 270 269 269
272 271 271 271 268 267 267 268 268 268 268 268 269 270 271 272 271 271 271 272 272 272 272 272 269 270 270 269 269 268 267 267 265 264 265 266 267 272 272 271 270 270 270
274 273 271 271 270 268 268 270 270 270 269 270 271 271 273 274 273 272 271 272 273 272 273 272 270 272 271 270 268 268 266 266 266 266 266 268 269 270 270 270 271 272 271
275 274 273 272 271 270 271 272 273 272 271 272 273 273 273 275 275 273 271 271 272 273 274 273 272 272 271 272 270 268 266 268 268 268 269 269 268 269 269 270 272 272 271
275 275 275 273 273 271 271 272 274 274 273 274 274 273 274 274 273 272 272 271 273 273 274 274 273 271 271 271 272 270 268 268 270 270 269 268 268 269 270 271 272 272 273
278 276 275 275 273 272 271 272 273 274 274 275 275 275 275 275 273 273 273 273 272 273 275 274 274 273 273 273 273 272 271 271 271 270 269 268 269 270 271 273 273 274 275
278 276 276 276 275 274 274 274 274 274 275 275 275 276 278 277 275 274 274 274 273 275 276 275 275 275 275 275 276 274 272 271 270 269 268 269 270 270 271 273 274 275 276
280 279 279 278 277 276 276 278 276 275 275 276 277 278 279 278 276 276 276 276 276 277 277 276 277 277 277 277 277 274 274 272 269 268 268 269 270 271 272 273 275 276 276
283 280 280 280 278 278 278 278 276 275 278 279 278 279 279 278 278 277 277 277 277 278 278 278 279 278 278 277 276 275 274 272 270 268 268 269 269 270 272 274 275 276 277
283 281 280 279 279 279 279 278 277 277 279 281 280 280 281 280 280 280 278 278 278 279 279 280 282 280 279 277 276 275 274 273 271 269 270 269 267 269 271 273 275 277 278
282 280 280 280 280 281 279 278 279 279 280 281 281 281 281 281 281 281 279 278 278 279 279 281 282 281 280 277 275 274 273 272 271 271 270 270 269 269 270 273 276 277 277
284 284 283 282 282 281 279 279 280 281 281 282 282 281 281 281 280 279 279 278 279 280 279 281 283 283 280 278 276 274 272 272 272 271 271 271 271 271 272 274 276 277 278
283 283 283 283 283 282 282 281 281 282 281 282 282 281 282 281 280 280 280 278 278 279 281 283 284 283 280 278 276 275 273 273 274 273 273 273 273 274 275 276 278 278 278
284 284 284 284 284 284 284 281 280 282 284 285 285 284 283 282 283 282 280 278 278 281 284 285 285 284 280 277 276 276 275 275 274 274 276 274 274 275 276 277 279 279 279
286 286 286 286 286 285 284 281 280 282 284 285 285 283 282 283 283 282 280 279 278 281 285 286 286 284 281 278 277 276 275 275 275 274 276 276 276 276 277 277 278 279 278
286 287 287 286 287 286 284 282 281 282 283 284 285 285 284 285 284 281 280 279 280 281 283 284 283 282 282 280 278 277 276 278 278 278 279 277 277 277 277 277 276 276 275
288 288 288 286 285 285 285 285 284 283 283 283 285 286 286 285 284 282 280 280 282 283 284 284 283 283 283 282 281 280 278 279 281 280 280 278 276 276 276 274 273 273 273
291 290 289 286 285 285 285 285 286 285 285 285 285 285 285 284 283 281 281 282 283 285 286 285 284 283 284 284 283 282 279 279 281 280 279 277 275 275 274 273 272 271 270
293 292 291 289 286 285 284 285 286 286 286 286 284 284 284 284 283 282 282 282 282 284 286 286 284 283 283 283 283 282 280 279 279 279 278 276 275 275 275 274 273 271 269
293 292 291 290 288 285 285 286 286 287 287 286 285 284 284 282 281 281 282 282 282 283 284 284 283 283 283 281 282 282 281 280 279 279 278 278 277 276 275 274 272 269 265
Height
5695 5695 5696 5696 5697 5697 5698 5698 5699 5698 5698 5698 5698 5698 5698 5698 5698 5698 5698 5697 5697 5697 5697 5698 5699 5699 5700 5701 5701 5702 5702 5703 5703 5704 5705 5707 5707 5708 5709 5709 5710 5710 5709
5684 5685 5686 5686 5687 5687 5688 5688 5688 5688 5688 5688 5688 5688 5688 5688 5688 5688 5687 5687 5687 5686 5686 5687 5687 5688 5689 5689 5690 5690 5691 5692 5692 5693 5694 5696 5698 5698 5699 5699 5699 5699 5699
5674 5674 5675 5676 5677 5677 5678 5678 5678 5678 5678 5678 5677 5677 5678 5678 5678 5678 5677 5677 5676 5676 5676 5676 5676 5677 5677 5678 5678 5679 5680 5681 5682 5682 5683 5684 5686 5688 5689 5689 5689 5689 5689
5664 5665 5665 5666 5667 5668 5668 5668 5669 5669 5668 5668 5667 5667 5667 5667 5667 5667 5667 5666 5666 5665 5665 5665 5665 5666 5666 5667 5667 5668 5669 5670 5671 5672 5672 5674 5675 5676 5678 5679 5678 5678 5678
5655 5655 5656 5657 5657 5658 5658 5659 5659 5659 5658 5658 5658 5657 5657 5657 5657 5656 5656 5656 5656 5656 5655 5655 5655 5656 5656 5657 5657 5658 5659 5660 5660 5661 5662 5663 5664 5665 5666 5668 5668 5668 5668
5646 5646 5647 5647 5648 5648 5649 5649 5649 5649 5649 5648 5648 5647 5647 5647 5646 5646 5646 5646 5646 5646 5645 5645 5645 5645 5646 5647 5647 5648 5649 5649 5650 5651 5652 5653 5654 5655 5655 5656 5656 5657 5658
5637 5637 5637 5638 5639 5639 5640 5640 5640 5640 5640 5639 5639 5638 5638 5637 5637 5636 5636 5636 5636 5636 5636 5636 5636 5636 5636 5637 5637 5638 5639 5639 5640 5641 5642 5643 5645 5645 5645 5645 5646 5646 5647
5628 5628 5629 5629 5630 5630 5631 5631 5631 5631 5631 5630 5630 5629 5629 5628 5628 5627 5627 5627 5627 5627 5626 5626 5626 5627 5627 5628 5628 5628 5629 5630 5630 5631 5633 5634 5635 5635 5635 5635 5635 5636 5637
5620 5620 5621 5621 5621 5621 5622 5622 5622 5622 5622 5622 5621 5621 5620 5620 5619 5618 5618 5619 5619 5618 5618 5617 5617 5618 5618 5618 5619 5619 5619 5620 5621 5622 5624 5624 5625 5625 5625 5625 5625 5626 5626
5612 5612 5613 5613 5613 5613 5614 5614 5614 5614 5613 5613 5612 5612 5612 5611 5611 5610 5610 5610 5610 5610 5609 5609 5609 5609 5609 5610 5610 5610 5610 5611 5612 5612 5613 5614 5614 5614 5614 5615 5615 5615 5615
5605 5605 5605 5605 5605 5606 5606 5606 5606 5606 5605 5605 5604 5604 5604 5603 5603 5602 5602 5602 5602 5602 5601 5601 5600 5600 5601 5601 5601 5601 5602 5602 5603 5603 5603 5604 5604 5604 5605 5605 5605 5604 5604
5598 5598 5598 5598 5598 5598 5598 5599 5598 5598 5598 5597 5597 5596 5595 5595 5595 5595 5594 5594 5594 5594 5593 5592 5592 5592 5592 5592 5591 5591 5592 5592 5593 5594 5594 5595 5595 5595 5595 5595 5595 5594 5594
5591 5591 5590 5590 5590 5591 5591 5591 5591 5591 5590 5590 5589 5588 5588 5587 5587 5587 5586 5586 5586 5585 5585 5584 5584 5584 5583 5583 5582 5582 5582 5583 5583 5584 5584 5585 5585 5585 5585 5585 5585 5585 5584
5584 5584 5583 5583 5584 5584 5584 5584 5583 5583 5582 5582 5581 5581 5580 5579 5579 5579 5578 5578 5578 5577 5576 5576 5575 5575 5574 5573 5573 5573 5573 5573 5573 5574 5575 5575 5576 5576 5576 5576 5576 5575 5574
5578 5577 5577 5577 5577 5577 5577 5577 5576 5576 5575 5575 5574 5573 5572 5572 5571 5570 5570 5570 5569 5568 5568 5567 5567 5566 5565 5565 5564 5564 5564 5563 5564 5564 5565 5566 5566 5567 5567 5567 5566 5565 5564
5572 5572 5571 5571 5571 5571 5571 5570 5570 5569 5568 5567 5566 5565 5564 5564 5563 5562 5562 5561 5561 5560 5559 5559 5558 5557 5556 5556 5555 5555 5555 5555 5554 5555 5555 5556 5557 5557 5557 5557 5556 5555 5554
5567 5566 5566 5565 5565 5565 5564 5563 5563 5562 5561 5560 5559 5558 5557 5556 5555 5554 5553 5553 5552 5551 5551 5550 5549 5548 5548 5547 5547 5546 5546 5546 5546 5546 5547 5547 5548 5548 5548 5547 5546 5546 5544
5562 5561 5560 5560 5559 5558 5557 5557 5556 5555 5553 5552 5551 5550 5549 5548 5547 5546 5545 5544 5543 5543 5542 5542 5540 5539 5539 5539 5538 5538 5537 5537 5537 5537 5538 5538 5539 5538 5538 5537 5537 5536 5535
5556 5555 5554 5553 5552 5552 5551 5550 5548 5547 5546 5545 5543 5542 5541 5540 5539 5538 5537 5536 5535 5535 5534 5533 5532 5531 5531 5530 5530 5529 5529 5529 5528 5528 5529 5529 5529 5529 5528 5528 5527 5527 5526
5550 5549 5547 5546 5546 5545 5543 5542 5541 5540 5539 5537 5536 5534 5533 5532 5531 5530 5529 5528 5527 5527 5526 5525 5524 5524 5523 5522 5521 5521 5520 5520 5520 5520 5520 5520 5520 5520 5518 5518 5518 5518 5517
5543 5542 5541 5539 5538 5537 5536 5534 5534 5533 5531 5529 5528 5526 5525 5524 5523 5522 5521 5520 5520 5519 5518 5517 5517 5516 5515 5514 5513 5512 5512 5512 5512 5511 5511 5511 5510 5510 5510 5509 5509 5509 5508
5537 5536 5534 5533 5531 5530 5529 5527 5526 5525 5523 5521 5520 5518 5517 5516 5515 5514 5513 5513 5512 5511 5511 5510 5509 5508 5507 5506 5505 5504 5503 5503 5503 5503 5503 5502 5501 5501 5501 5500 5500 5500 5499
5531 5529 5527 5526 5524 5522 5521 5520 5519 5517 5515 5514 5513 5511 5510 5508 5507 5506 5506 5505 5505 5504 5503 5502 5501 5500 5499 5498 5497 5496 5495 5494 5494 5494 5494 5493 5492 5492 5492 5492 5492 5491 5491
5523 5521 5520 5518 5517 5515 5514 5513 5511 5510 5508 5507 5505 5504 5503 5501 5500 5499 5498 5498 5497 5497 5496 5494 5493 5492 5491 5490 5489 5488 5487 5487 5486 5486 5485 5485 5484 5484 5484 5484 5483 5483 5483
5516 5514 5512 5511 5509 5508 5506 5505 5504 5502 5501 5499 5498 5497 5496 5494 5493 5492 5491 5491 5490 5489 5488 5487 5486 5485 5484 5483 5482 5481 5480 5479 5479 5478 5478 5477 5477 5477 5476 5475 5475 5475 5475
5509 5507 5506 5504 5502 5500 5499 5498 5496 5495 5494 5492 5491 5490 5489 5487 5486 5486 5485 5483 5482 5481 5480 5479 5478 5477 5477 5476 5475 5474 5473 5472 5472 5471 5471 5470 5470 5470 5469 5468 5468 5468 5468